• en Suisse
  • Liste des pays
  • À 7 jours
  • Température de l'eau
  • Carte satellitaire
  • Carte météo
  • Widgets météo
  • user-avatar
    Se connecter

    Météo par heure à Thimphou

    Ce jour, 17 Août, Vendredi

    Heure Température Précipitation Vent Pression Humidité
    00:00 +13°C° 0 mm 1 m/s 525 mmHg 93%
    01:00 +13°C° 0,2 mm 1 m/s 525 mmHg 92%
    02:00 +13°C° 0,2 mm 1 m/s 525 mmHg 92%
    03:00 +13°C° 0,2 mm 1 m/s 525 mmHg 91%
    04:00 +13°C° 0,1 mm 1 m/s 525 mmHg 90%
    05:00 +13°C° 0,1 mm 1 m/s 525 mmHg 89%
    06:00 +13°C° 0 mm 1 m/s 525 mmHg 86%
    07:00 +15°C° 0 mm 1 m/s 526 mmHg 77%
    08:00 +18°C° 0 mm 1 m/s 527 mmHg 69%
    09:00 +20°C° 0 mm 1 m/s 529 mmHg 61%
    10:00 +20°C° 0,1 mm 2 m/s 529 mmHg 60%
    11:00 +20°C° 0,1 mm 2 m/s 529 mmHg 59%
    12:00 +21°C° 0,1 mm 2 m/s 528 mmHg 59%
    13:00 +20°C° 0,3 mm 2 m/s 528 mmHg 63%
    14:00 +20°C° 0,3 mm 2 m/s 527 mmHg 66%
    15:00 +19°C° 0,3 mm 2 m/s 526 mmHg 70%
    16:00 +18°C° 0,3 mm 2 m/s 525 mmHg 76%
    17:00 +17°C° 0,3 mm 2 m/s 525 mmHg 81%
    18:00 +16°C° 0,3 mm 1 m/s 524 mmHg 86%
    19:00 +16°C° 0,3 mm 1 m/s 524 mmHg 88%
    20:00 +15°C° 0,3 mm 1 m/s 524 mmHg 90%
    21:00 +14°C° 0,3 mm 1 m/s 524 mmHg 93%
    22:00 +14°C° 0,4 mm 1 m/s 524 mmHg 92%
    23:00 +14°C° 0,4 mm 1 m/s 524 mmHg 92%

    Demain, 18 Août, Samedi

    Heure Température Précipitation Vent Pression Humidité
    00:00 +14°C° 0,4 mm 1 m/s 524 mmHg 92%
    01:00 +13°C° 0,7 mm 1 m/s 524 mmHg 92%
    02:00 +13°C° 0,7 mm 1 m/s 524 mmHg 92%
    03:00 +13°C° 0,7 mm 1 m/s 523 mmHg 92%
    04:00 +13°C° 0,5 mm 1 m/s 523 mmHg 90%
    05:00 +12°C° 0,5 mm 1 m/s 523 mmHg 89%
    06:00 +12°C° 0,5 mm 1 m/s 523 mmHg 88%
    07:00 +15°C° 0,1 mm 1 m/s 525 mmHg 78%
    08:00 +18°C° 0,1 mm 1 m/s 526 mmHg 69%
    09:00 +21°C° 0,1 mm 1 m/s 528 mmHg 59%
    10:00 +20°C° 0,2 mm 2 m/s 528 mmHg 57%
    11:00 +21°C° 0,2 mm 2 m/s 528 mmHg 55%
    12:00 +22°C° 0,2 mm 3 m/s 528 mmHg 53%
    13:00 +21°C° 0,4 mm 3 m/s 527 mmHg 58%
    14:00 +20°C° 0,4 mm 3 m/s 526 mmHg 64%
    15:00 +19°C° 0,4 mm 2 m/s 525 mmHg 69%
    16:00 +18°C° 0,3 mm 2 m/s 525 mmHg 74%
    17:00 +17°C° 0,3 mm 2 m/s 524 mmHg 80%
    18:00 +16°C° 0,3 mm 1 m/s 523 mmHg 85%
    19:00 +15°C° 0,3 mm 1 m/s 523 mmHg 87%
    20:00 +15°C° 0,3 mm 1 m/s 523 mmHg 89%
    21:00 +14°C° 0,3 mm 1 m/s 523 mmHg 91%
    22:00 +14°C° 0,2 mm 1 m/s 524 mmHg 91%
    23:00 +14°C° 0,2 mm 1 m/s 524 mmHg 91%

    Après-demain, 19 Août, Dimanche

    Heure Température Précipitation Vent Pression Humidité
    00:00 +13°C° 0,2 mm 1 m/s 524 mmHg 90%
    01:00 +13°C° 0,3 mm 1 m/s 523 mmHg 90%
    02:00 +13°C° 0,3 mm 1 m/s 523 mmHg 89%
    03:00 +13°C° 0,3 mm 1 m/s 523 mmHg 88%
    04:00 +13°C° 0 mm 1 m/s 523 mmHg 87%
    05:00 +13°C° 0 mm 1 m/s 523 mmHg 85%
    06:00 +12°C° 0 mm 1 m/s 523 mmHg 84%
    07:00 +15°C° 0 mm 1 m/s 525 mmHg 75%
    08:00 +18°C° 0 mm 1 m/s 526 mmHg 65%
    09:00 +21°C° 0 mm 1 m/s 528 mmHg 56%
    10:00 +20°C° 0,1 mm 2 m/s 528 mmHg 55%
    11:00 +21°C° 0,1 mm 2 m/s 528 mmHg 55%
    12:00 +21°C° 0,1 mm 3 m/s 528 mmHg 55%
    13:00 +21°C° 0,4 mm 3 m/s 527 mmHg 60%
    14:00 +20°C° 0,4 mm 3 m/s 526 mmHg 65%
    15:00 +19°C° 0,4 mm 2 m/s 525 mmHg 70%
    16:00 +18°C° 0,2 mm 2 m/s 525 mmHg 75%
    17:00 +17°C° 0,2 mm 2 m/s 524 mmHg 81%
    18:00 +16°C° 0,2 mm 1 m/s 524 mmHg 86%
    19:00 +15°C° 0,1 mm 1 m/s 524 mmHg 88%
    20:00 +15°C° 0,1 mm 1 m/s 524 mmHg 91%
    21:00 +14°C° 0,1 mm 1 m/s 524 mmHg 93%
    22:00 +14°C° 0,1 mm 1 m/s 524 mmHg 92%
    23:00 +14°C° 0,1 mm 1 m/s 524 mmHg 92%

    20 Août, Lundi

    Heure Température Précipitation Vent Pression Humidité
    00:00 +14°C° 0,1 mm 1 m/s 524 mmHg 91%
    01:00 +13°C° 0,2 mm 1 m/s 524 mmHg 91%
    02:00 +13°C° 0,2 mm 1 m/s 524 mmHg 91%
    03:00 +13°C° 0,2 mm 1 m/s 524 mmHg 90%
    04:00 +13°C° 0,1 mm 1 m/s 524 mmHg 90%
    05:00 +12°C° 0,1 mm 1 m/s 524 mmHg 89%
    06:00 +12°C° 0,1 mm 1 m/s 524 mmHg 88%
    07:00 +14°C° 0,1 mm 1 m/s 526 mmHg 80%
    08:00 +18°C° 0,1 mm 1 m/s 527 mmHg 71%
    09:00 +19°C° 0,1 mm 2 m/s 529 mmHg 62%
    10:00 +19°C° 0,2 mm 2 m/s 529 mmHg 62%
    11:00 +20°C° 0,2 mm 2 m/s 529 mmHg 61%
    12:00 +20°C° 0,2 mm 3 m/s 529 mmHg 61%
    13:00 +20°C° 0,5 mm 3 m/s 528 mmHg 65%
    14:00 +19°C° 0,5 mm 2 m/s 527 mmHg 69%
    15:00 +18°C° 0,5 mm 2 m/s 526 mmHg 73%
    16:00 +18°C° 0,3 mm 2 m/s 526 mmHg 78%
    17:00 +17°C° 0,3 mm 2 m/s 525 mmHg 82%
    18:00 +16°C° 0,3 mm 1 m/s 525 mmHg 87%
    19:00 +15°C° 0,2 mm 1 m/s 525 mmHg 89%
    20:00 +15°C° 0,2 mm 1 m/s 525 mmHg 91%
    21:00 +14°C° 0,2 mm 1 m/s 525 mmHg 93%
    22:00 +13°C° 0,2 mm 0 m/s 525 mmHg 93%
    23:00 +12°C° 0,2 mm 0 m/s 525 mmHg 93%

    21 Août, Mardi

    Heure Température Précipitation Vent Pression Humidité
    00:00 +12°C° 0,2 mm 0 m/s 525 mmHg 93%
    01:00 +12°C° 0,3 mm 0 m/s 524 mmHg 93%
    02:00 +12°C° 0,3 mm 0 m/s 524 mmHg 92%
    03:00 +12°C° 0,3 mm 0 m/s 524 mmHg 92%
    04:00 +12°C° 0,1 mm 0 m/s 524 mmHg 92%
    05:00 +12°C° 0,1 mm 0 m/s 524 mmHg 91%
    06:00 +12°C° 0,1 mm 0 m/s 524 mmHg 90%
    07:00 +14°C° 0 mm 1 m/s 525 mmHg 84%
    08:00 +16°C° 0 mm 1 m/s 526 mmHg 78%
    09:00 +19°C° 0 mm 1 m/s 527 mmHg 72%
    10:00 +19°C° 0,1 mm 2 m/s 528 mmHg 69%
    11:00 +19°C° 0,1 mm 2 m/s 528 mmHg 67%
    12:00 +20°C° 0,1 mm 2 m/s 528 mmHg 64%
    13:00 +20°C° 0,2 mm 2 m/s 527 mmHg 67%
    14:00 +19°C° 0,2 mm 2 m/s 526 mmHg 69%
    15:00 +19°C° 0,2 mm 2 m/s 525 mmHg 72%
    16:00 +18°C° 0,1 mm 2 m/s 525 mmHg 77%
    17:00 +18°C° 0,1 mm 1 m/s 524 mmHg 83%
    18:00 +16°C° 0,1 mm 1 m/s 523 mmHg 88%
    19:00 +15°C° 0 mm 1 m/s 524 mmHg 91%
    20:00 +15°C° 0 mm 1 m/s 524 mmHg 93%
    21:00 +13°C° 0 mm 0 m/s 524 mmHg 95%
    22:00 +13°C° 0 mm 0 m/s 524 mmHg 95%
    23:00 +13°C° 0 mm 0 m/s 524 mmHg 94%

    22 Août, Mercredi

    Heure Température Précipitation Vent Pression Humidité
    00:00 +14°C° 0 mm 1 m/s 524 mmHg 93%
    01:00 +12°C° 0,1 mm 0 m/s 523 mmHg 92%
    02:00 +12°C° 0,1 mm 0 m/s 523 mmHg 91%
    03:00 +12°C° 0,1 mm 0 m/s 523 mmHg 90%
    04:00 +12°C° 0,1 mm 0 m/s 523 mmHg 90%
    05:00 +12°C° 0,1 mm 0 m/s 523 mmHg 89%
    06:00 +12°C° 0,1 mm 0 m/s 523 mmHg 89%
    07:00 +14°C° 0,1 mm 1 m/s 524 mmHg 82%
    08:00 +16°C° 0,1 mm 1 m/s 525 mmHg 76%
    09:00 +19°C° 0,1 mm 1 m/s 527 mmHg 69%
    10:00 +19°C° 0,1 mm 2 m/s 527 mmHg 68%
    11:00 +19°C° 0,1 mm 2 m/s 527 mmHg 67%
    12:00 +20°C° 0,1 mm 2 m/s 527 mmHg 66%
    13:00 +19°C° 0,1 mm 2 m/s 526 mmHg 69%
    14:00 +19°C° 0,1 mm 2 m/s 525 mmHg 73%
    15:00 +18°C° 0,1 mm 2 m/s 524 mmHg 76%
    16:00 +17°C° 0,1 mm 2 m/s 524 mmHg 80%
    17:00 +17°C° 0,1 mm 2 m/s 524 mmHg 84%
    18:00 +16°C° 0,1 mm 1 m/s 523 mmHg 88%
    19:00 +15°C° 0 mm 1 m/s 523 mmHg 91%
    20:00 +15°C° 0 mm 1 m/s 524 mmHg 93%
    21:00 +13°C° 0 mm 0 m/s 524 mmHg 95%
    22:00 +13°C° 0,1 mm 0 m/s 524 mmHg 95%
    23:00 +13°C° 0,1 mm 0 m/s 524 mmHg 95%
    Voir plus